{"data":{"norad_id":59475,"intl_designator":"2024-068W","name":"STARLINK-31566","alt_names":[],"object_type":"PAYLOAD","status":"ACTIVE","operator":null,"country":"US","launch_date":"2024-04-10","launch_site_code":"AFETR","launch_vehicle":null,"mission":null,"orbit_class":"UNKNOWN","rcs_meters":null,"size_class":null,"mass_kg":null,"dimensions":null,"purposes":["comms"],"wikipedia_slug":null,"has_3d_model":false,"image_url":null,"decayed_at":null,"tle_current":{"epoch":"2026-09-21T14:00:45.478944Z","epoch_age_seconds":71261,"freshness":"FRESH","line1":"1 59475U 24068W   26264.58385971  .00000139  00000+0  14578-4 0  9997","line2":"2 59475  43.0021   8.0827 0001339 270.4747  89.5952 15.27579057138484","mean_motion":15.27579057,"eccentricity":0.0001339,"inclination_deg":43.0021,"raan_deg":8.0827,"arg_perigee_deg":270.4747,"mean_anomaly_deg":89.5952,"bstar":1.4578e-5,"rev_number":13848,"period_min":94.266806906086,"perigee_km":482.133206526,"apogee_km":483.9706329187,"semimajor_km":6861.1889197223,"source":"CELESTRAK","updated_at":"2026-09-22T09:00:48.951291Z"}}}